Back to catalog

STARLINK-35462

AliveCommunicationsVLEO
NORAD 65877·PAYLOAD·🇺🇸 United States

Launched Oct 3, 2025 from Vandenberg Space Force Base

Loading…

Next Passes (next 24 hours)

TLE

FreshSource: CelesTrak SupGP

Epoch: Sep 14, 2026, 14:57 UTC

1 65877C 25223Z   26257.62340278  .00048082  00000+0  14201-2 0  2579
2 65877  53.1567 134.9619 0001190 104.5689 312.1797 15.34377022    14

Track STARLINK-35462 in real time with AllMySat

Download on the App Store